User: anonymous   Login
Location: Владивосток
(43.1151°N, 131.8856°E)
Time: 17:12:10
(UTC+10:00)
Language:

BEESAT 3 - Orbit

View from above orbital plane
View from above orbital plane
View from above satellite
View from above satellite

Ground track
Ground track

The orbit data is extracted from the following two-line orbital elements,

1 39134U 13015E   22178.90009037  .00007616  00000-0  27386-3 0  9997
2 39134  64.8625  27.6015 0035014 277.8510  81.8648 15.28761765508452
Epoch (UTC): 27 June 2022 21:36:07
Eccentricity: 0.0035014
inclination: 64.8625°
perigee height: 455 km
apogee height: 503 km
right ascension of ascending node: 27.6015°
argument of perigee: 277.8510°
revolutions per day: 15.28761765
mean anomaly at epoch: 81.8648°
orbit number at epoch: 50845

The dashed part of the orbit path shows where the satellite is in the earth's shadow,  

DLR